リニア彗星

217P/LINEAR (2025)

English version
Home page
Updated on January 31, 2026

---------------------------------------------------------------------

・ プロフィール

・ 写真集

・ 軌道要素

Epoch 2025 May 5.0 TT = JDT 2460800.5
T 2025 May 24.94406 TT                                  Pike
q   1.2263740            (2000.0)            P               Q
n   0.12582731     Peri.  247.03580     +0.95779637     -0.22284773
a   3.9441442      Node   125.37158     +0.26640549     +0.92540809
e   0.6890646      Incl.   12.86548     -0.10795477     +0.30652692
P   7.83
From 3329 observations 2001 June 21-2025 Aug. 4, mean residual 0".6.
     Nongravitational parameters A1 = +0.17, A2 = +0.0030.

・ 星図

・ 光度変化

        H = 14.0  G = 0.15                       [    ,-245]  (              〜2024年 9月21日)
        m1 = 9.5 + 5 logΔ + 16.0 log r(t - 20)  [-245, 245]  (2024年 9月21日〜2026年 1月24日)
        H = 14.0  G = 0.15                       [ 245,    ]  (2026年 1月24日〜              )

---------------------------------------------------------------------

軌道要素はM.P.E.C. 2025-P113に掲載されたものです。
星図はステラナビゲータ Ver.10 (アストロアーツ) で作成したものです。
光度グラフはComet for Windowsで作成したものです。

---------------------------------------------------------------------

Copyright(C) Seiichi Yoshida (comet@aerith.net). All rights reserved.